sat.trackr.live / text

‹ back to catalog

STARLINK-32080

NORAD 59683 · 2024-086B

PAYLOAD ACTIVE UNKNOWN

§ Identity

Operator
Country
US
Launch date
2024-05-08
Launch site
AFETR
Launch vehicle
Mass (kg)
RCS (m²)

Purposes: comms

External: N2YO · Heavens-Above · Gunter

§ Orbital elements

Epoch: 2026-05-24T23:24:58.238784Z

Period
94.27 min
Inclination
43.0037°
Eccentricity
0.0001249
Mean motion
15.27576550 rev/d
Perigee alt
482.2 km
Apogee alt
483.9 km
Semi-major
6,861.2 km
B*
1.4412e-5
RAAN
352.9751°
Arg perigee
254.0247°
Mean anomaly
106.0467°
Rev number
11,574

§ Raw data

STARLINK-320801 59683U 24086B   26144.97567406  .00000134  00000+0  14412-4 0  99952 59683  43.0037 352.9751 0001249 254.0247 106.0467 15.27576550115747

JSON: /api/v1/satellites/59683 · /tle

For live sub-satellite position, see the globe view (requires WebGL).

§ Visibility from observer

Set your observer location to see the next 7 days of passes ≥ 10°. The values pass through the URL so the page stays shareable.

No JS? Fill the form by hand. The geolocation button needs JavaScript.